Tracking 20232 objects as of 20-Jan-2020
HD Live streaming from Space Station
objects crossing your sky now

COSMOS 1275 DEB

Track COSMOS 1275 DEB now!
10-day predictions


NORAD ID: 42191
Int'l Code: 1981-053TF
Perigee: 871.5 km
Apogee: 929.3 km
Inclination: 82.8 °
Period: 102.8 minutes
Semi major axis: 7271 km
RCS: Unknown
Launch date: June 4, 1981
Source: Commonwealth of Independent States (former USSR) (CIS)
Launch site: PLESETSK MISSILE AND SPACE COMPLEX (PKMTR)

Note: This is SATELLITE DEBRIS
aabbcc
Your satellite tracking list
Your tracking list is empty




NASA's NSSDC Master Catalog

Two Line Element Set (TLE):
1 42191U 81053TF  20018.16649986  .00000483  00000-0  31502-3 0  9993
2 42191  82.8262 177.3916 0039756 318.9847  40.8335 14.00161604893771
Source of the keplerian elements: AFSPC